Time,TemperatureF,DewpointF,PressureIn,WindDirection,WindDirectionDegrees,WindSpeedMPH,WindSpeedGustMPH,Humidity,HourlyPrecipIn,Conditions,Clouds,dailyrainin,SolarRadiationWatts/m^2,SoftwareType,DateUTC
2013-03-14 00:12:00,33.6,26.0,29.82,WNW,303,0.0,0.0,74,0.00,,,0.00,0,weatherlink.com 1.10,2013-03-14 04:12:00,
2013-03-14 00:27:00,33.7,26.0,29.82,WNW,303,0.0,1.0,74,0.00,,,0.00,0,weatherlink.com 1.10,2013-03-14 04:27:00,
2013-03-14 00:42:00,33.9,25.0,29.82,NW,308,0.0,3.0,71,0.00,,,0.00,0,weatherlink.com 1.10,2013-03-14 04:42:00,
2013-03-14 00:57:00,34.1,24.0,29.82,NNE,27,2.0,6.0,67,0.00,,,0.00,0,weatherlink.com 1.10,2013-03-14 04:57:00,
2013-03-14 01:12:00,33.8,23.0,29.82,NW,322,0.0,4.0,66,0.00,,,0.00,0,weatherlink.com 1.10,2013-03-14 05:12:00,
2013-03-14 01:51:00,32.7,22.0,29.82,South,173,1.0,4.0,64,0.00,,,0.00,0,weatherlink.com 1.10,2013-03-14 05:51:00,
2013-03-14 01:57:00,32.6,21.0,29.82,WNW,291,1.0,5.0,62,0.00,,,0.00,0,weatherlink.com 1.10,2013-03-14 05:57:00,
2013-03-14 02:12:00,32.5,19.0,29.82,WSW,245,0.0,5.0,59,0.00,,,0.00,0,weatherlink.com 1.10,2013-03-14 06:12:00,
2013-03-14 02:42:00,32.3,17.0,29.82,SW,223,0.0,10.0,54,0.00,,,0.00,0,weatherlink.com 1.10,2013-03-14 06:42:00,
2013-03-14 02:57:00,32.1,16.0,29.82,WNW,297,3.0,5.0,52,0.00,,,0.00,0,weatherlink.com 1.10,2013-03-14 06:57:00,
2013-03-14 03:12:00,32.0,16.0,29.82,South,171,1.0,4.0,51,0.00,,,0.00,0,weatherlink.com 1.10,2013-03-14 07:12:00,
2013-03-14 03:27:00,31.8,15.0,29.82,NW,323,0.0,4.0,50,0.00,,,0.00,0,weatherlink.com 1.10,2013-03-14 07:27:00,
2013-03-14 03:43:00,31.6,15.0,29.81,NNW,333,0.0,6.0,51,0.00,,,0.00,0,weatherlink.com 1.10,2013-03-14 07:43:00,
2013-03-14 03:57:00,31.2,15.0,29.81,South,190,0.0,5.0,51,0.00,,,0.00,0,weatherlink.com 1.10,2013-03-14 07:57:00,
2013-03-14 04:12:00,30.6,14.0,29.81,North,350,3.0,6.0,51,0.00,,,0.00,0,weatherlink.com 1.10,2013-03-14 08:12:00,
2013-03-14 04:28:00,30.3,14.0,29.81,NW,313,2.0,5.0,51,0.00,,,0.00,0,weatherlink.com 1.10,2013-03-14 08:28:00,
2013-03-14 04:43:00,30.1,15.0,29.81,WNW,292,0.0,3.0,53,0.00,,,0.00,0,weatherlink.com 1.10,2013-03-14 08:43:00,
2013-03-14 04:58:00,29.7,14.0,29.82,West,275,1.0,5.0,53,0.00,,,0.00,0,weatherlink.com 1.10,2013-03-14 08:58:00,
2013-03-14 05:13:00,29.2,14.0,29.81,NNW,332,1.0,5.0,54,0.00,,,0.00,0,weatherlink.com 1.10,2013-03-14 09:13:00,
2013-03-14 05:28:00,28.9,14.0,29.82,NNW,332,0.0,3.0,55,0.00,,,0.00,0,weatherlink.com 1.10,2013-03-14 09:28:00,
2013-03-14 05:43:00,28.7,15.0,29.82,NNW,332,0.0,1.0,57,0.00,,,0.00,0,weatherlink.com 1.10,2013-03-14 09:43:00,
2013-03-14 05:58:00,28.4,14.0,29.82,North,9,1.0,7.0,54,0.00,,,0.00,0,weatherlink.com 1.10,2013-03-14 09:58:00,
2013-03-14 06:13:00,28.5,14.0,29.82,NNE,20,1.0,1.0,56,0.00,,,0.00,0,weatherlink.com 1.10,2013-03-14 10:13:00,
2013-03-14 06:28:00,28.6,15.0,29.83,SSW,194,1.0,3.0,56,0.00,,,0.00,0,weatherlink.com 1.10,2013-03-14 10:28:00,
2013-03-14 06:43:00,28.4,13.0,29.83,NW,324,3.0,8.0,52,0.00,,,0.00,0,weatherlink.com 1.10,2013-03-14 10:43:00,
2013-03-14 06:58:00,27.9,12.0,29.84,NNW,337,2.0,8.0,51,0.00,,,0.00,0,weatherlink.com 1.10,2013-03-14 10:58:00,
2013-03-14 07:13:00,27.3,12.0,29.85,NW,320,7.0,11.0,52,0.00,,,0.00,0,weatherlink.com 1.10,2013-03-14 11:13:00,
2013-03-14 07:28:00,26.7,11.0,29.85,NNW,333,2.0,10.0,52,0.00,,,0.00,12,weatherlink.com 1.10,2013-03-14 11:28:00,
2013-03-14 07:43:00,26.4,10.0,29.86,SE,128,2.0,9.0,51,0.00,,,0.00,14,weatherlink.com 1.10,2013-03-14 11:43:00,
2013-03-14 07:58:00,26.3,10.0,29.86,NW,323,0.0,6.0,50,0.00,,,0.00,26,weatherlink.com 1.10,2013-03-14 11:58:00,
2013-03-14 08:13:00,26.3,10.0,29.87,NW,319,0.0,6.0,51,0.00,,,0.00,42,weatherlink.com 1.10,2013-03-14 12:13:00,
2013-03-14 08:28:00,25.8,9.0,29.88,NE,34,1.0,10.0,50,0.00,,,0.00,40,weatherlink.com 1.10,2013-03-14 12:28:00,
2013-03-14 08:43:00,25.4,9.0,29.88,NW,317,4.0,6.0,50,0.00,,,0.00,44,weatherlink.com 1.10,2013-03-14 12:43:00,
2013-03-14 08:58:00,25.1,9.0,29.89,NNW,336,2.0,6.0,51,0.00,,,0.00,28,weatherlink.com 1.10,2013-03-14 12:58:00,
2013-03-14 09:13:00,25.0,9.0,29.89,SSW,194,0.0,5.0,51,0.00,,,0.00,56,weatherlink.com 1.10,2013-03-14 13:13:00,
2013-03-14 09:28:00,25.5,9.0,29.89,NW,319,2.0,8.0,50,0.00,,,0.00,100,weatherlink.com 1.10,2013-03-14 13:28:00,
2013-03-14 09:43:00,25.5,10.0,29.89,NE,51,1.0,9.0,51,0.00,,,0.00,102,weatherlink.com 1.10,2013-03-14 13:43:00,
2013-03-14 09:58:00,26.3,10.0,29.89,NW,325,7.0,7.0,50,0.00,,,0.00,153,weatherlink.com 1.10,2013-03-14 13:58:00,
2013-03-14 10:13:00,26.6,9.0,29.89,WSW,246,3.0,9.0,48,0.00,,,0.00,186,weatherlink.com 1.10,2013-03-14 14:13:00,
2013-03-14 10:28:00,27.3,10.0,29.88,South,171,2.0,7.0,49,0.00,,,0.00,227,weatherlink.com 1.10,2013-03-14 14:28:00,
2013-03-14 10:44:00,27.1,10.0,29.88,NW,323,4.0,8.0,48,0.00,,,0.00,197,weatherlink.com 1.10,2013-03-14 14:44:00,
2013-03-14 10:59:00,26.8,9.0,29.89,NW,325,11.0,13.0,48,0.00,,,0.00,209,weatherlink.com 1.10,2013-03-14 14:59:00,
2013-03-14 11:14:00,27.0,10.0,29.88,SSE,159,2.0,11.0,48,0.00,,,0.00,181,weatherlink.com 1.10,2013-03-14 15:14:00,
2013-03-14 11:29:00,27.7,11.0,29.88,NW,320,1.0,8.0,49,0.00,,,0.00,186,weatherlink.com 1.10,2013-03-14 15:29:00,
2013-03-14 11:44:00,27.4,10.0,29.88,SE,135,0.0,10.0,48,0.00,,,0.00,209,weatherlink.com 1.10,2013-03-14 15:44:00,
2013-03-14 11:59:00,27.9,10.0,29.88,SSE,165,4.0,8.0,48,0.00,,,0.00,264,weatherlink.com 1.10,2013-03-14 15:59:00,
2013-03-14 12:14:00,27.6,10.0,29.88,South,190,3.0,8.0,47,0.00,,,0.00,272,weatherlink.com 1.10,2013-03-14 16:14:00,
2013-03-14 12:44:00,26.6,9.0,29.88,NW,309,6.0,9.0,48,0.00,,,0.00,218,weatherlink.com 1.10,2013-03-14 16:44:00,
2013-03-14 12:59:00,27.5,11.0,29.89,West,264,4.0,7.0,50,0.00,,,0.00,227,weatherlink.com 1.10,2013-03-14 16:59:00,
2013-03-14 13:14:00,27.3,10.0,29.88,South,177,2.0,12.0,48,0.00,,,0.00,220,weatherlink.com 1.10,2013-03-14 17:14:00,
2013-03-14 13:29:00,27.5,11.0,29.88,West,281,1.0,8.0,50,0.00,,,0.00,257,weatherlink.com 1.10,2013-03-14 17:29:00,
2013-03-14 13:44:00,28.3,11.0,29.87,South,187,2.0,6.0,48,0.00,,,0.00,292,weatherlink.com 1.10,2013-03-14 17:44:00,
2013-03-14 13:59:00,28.3,11.0,29.86,NNW,346,1.0,8.0,48,0.00,,,0.00,281,weatherlink.com 1.10,2013-03-14 17:59:00,
2013-03-14 14:14:00,28.8,11.0,29.85,NW,326,1.0,4.0,47,0.00,,,0.00,209,weatherlink.com 1.10,2013-03-14 18:14:00,
2013-03-14 14:29:00,29.2,12.0,29.84,NNW,327,1.0,5.0,48,0.00,,,0.00,199,weatherlink.com 1.10,2013-03-14 18:29:00,
2013-03-14 14:44:00,29.8,12.0,29.84,NNW,337,3.0,8.0,47,0.00,,,0.00,153,weatherlink.com 1.10,2013-03-14 18:44:00,
2013-03-14 14:59:00,30.0,12.0,29.83,NW,319,0.0,4.0,47,0.00,,,0.00,190,weatherlink.com 1.10,2013-03-14 18:59:00,
2013-03-14 15:14:00,30.5,12.0,29.83,NW,312,5.0,10.0,46,0.00,,,0.00,192,weatherlink.com 1.10,2013-03-14 19:14:00,
2013-03-14 15:29:00,30.8,12.0,29.83,NNW,342,9.0,14.0,46,0.00,,,0.00,141,weatherlink.com 1.10,2013-03-14 19:29:00,
2013-03-14 15:44:00,30.7,13.0,29.83,North,355,3.0,10.0,47,0.00,,,0.00,123,weatherlink.com 1.10,2013-03-14 19:44:00,
2013-03-14 15:59:00,30.9,13.0,29.82,NNW,329,11.0,15.0,48,0.00,,,0.00,132,weatherlink.com 1.10,2013-03-14 19:59:00,
2013-03-14 16:14:00,30.9,15.0,29.83,SE,133,7.0,8.0,51,0.00,,,0.00,125,weatherlink.com 1.10,2013-03-14 20:14:00,
2013-03-14 16:29:00,30.8,14.0,29.83,NNW,336,7.0,9.0,50,0.00,,,0.00,76,weatherlink.com 1.10,2013-03-14 20:29:00,
2013-03-14 16:44:00,30.8,14.0,29.84,NNW,346,5.0,9.0,50,0.00,,,0.00,39,weatherlink.com 1.10,2013-03-14 20:44:00,
2013-03-14 16:59:00,30.7,14.0,29.84,SSW,196,0.0,9.0,51,0.00,,,0.00,49,weatherlink.com 1.10,2013-03-14 20:59:00,
2013-03-14 17:14:00,30.6,15.0,29.84,SW,225,2.0,12.0,52,0.00,,,0.00,69,weatherlink.com 1.10,2013-03-14 21:14:00,
2013-03-14 17:29:00,30.6,15.0,29.84,WNW,300,2.0,7.0,52,0.00,,,0.00,104,weatherlink.com 1.10,2013-03-14 21:29:00,
2013-03-14 17:44:00,30.7,14.0,29.85,NNW,342,8.0,9.0,51,0.00,,,0.00,69,weatherlink.com 1.10,2013-03-14 21:44:00,
2013-03-14 17:59:00,30.4,15.0,29.84,NNW,336,0.0,7.0,52,0.00,,,0.00,58,weatherlink.com 1.10,2013-03-14 21:59:00,
2013-03-14 18:14:00,30.4,15.0,29.86,North,355,6.0,13.0,52,0.00,,,0.00,53,weatherlink.com 1.10,2013-03-14 22:14:00,
2013-03-14 18:29:00,30.1,14.0,29.85,SSW,195,3.0,10.0,51,0.00,,,0.00,21,weatherlink.com 1.10,2013-03-14 22:29:00,
2013-03-14 18:44:00,29.9,14.0,29.86,SSW,203,2.0,6.0,52,0.00,,,0.00,23,weatherlink.com 1.10,2013-03-14 22:44:00,
2013-03-14 18:59:00,29.6,14.0,29.86,South,188,3.0,9.0,52,0.00,,,0.00,5,weatherlink.com 1.10,2013-03-14 22:59:00,
2013-03-14 19:14:00,29.2,14.0,29.87,WNW,298,2.0,10.0,53,0.00,,,0.00,0,weatherlink.com 1.10,2013-03-14 23:14:00,
2013-03-14 19:29:00,29.2,13.0,29.87,NNW,340,5.0,9.0,52,0.00,,,0.00,0,weatherlink.com 1.10,2013-03-14 23:29:00,
2013-03-14 19:44:00,29.2,14.0,29.87,SW,225,2.0,10.0,53,0.00,,,0.00,0,weatherlink.com 1.10,2013-03-14 23:44:00,
2013-03-14 19:59:00,29.0,14.0,29.87,SSE,159,1.0,6.0,54,0.00,,,0.00,0,weatherlink.com 1.10,2013-03-14 23:59:00,
2013-03-14 20:14:00,28.8,15.0,29.87,NNW,340,1.0,7.0,56,0.00,,,0.00,0,weatherlink.com 1.10,2013-03-15 00:14:00,
2013-03-14 20:29:00,28.6,15.0,29.87,NW,311,1.0,8.0,57,0.00,,,0.00,0,weatherlink.com 1.10,2013-03-15 00:29:00,
2013-03-14 20:44:00,28.5,15.0,29.88,South,176,1.0,6.0,57,0.00,,,0.00,0,weatherlink.com 1.10,2013-03-15 00:44:00,
2013-03-14 20:59:00,28.4,15.0,29.87,NE,51,0.0,4.0,58,0.00,,,0.00,0,weatherlink.com 1.10,2013-03-15 00:59:00,
2013-03-14 21:14:00,28.4,15.0,29.87,NNW,342,0.0,2.0,58,0.00,,,0.00,0,weatherlink.com 1.10,2013-03-15 01:14:00,
2013-03-14 21:29:00,28.6,15.0,29.88,ESE,116,2.0,3.0,58,0.00,,,0.00,0,weatherlink.com 1.10,2013-03-15 01:29:00,
2013-03-14 21:44:00,28.7,15.0,29.88,NNW,327,0.0,4.0,57,0.00,,,0.00,0,weatherlink.com 1.10,2013-03-15 01:44:00,
2013-03-14 21:59:00,28.6,15.0,29.88,NNW,340,1.0,5.0,57,0.00,,,0.00,0,weatherlink.com 1.10,2013-03-15 01:59:00,
2013-03-14 22:14:00,28.6,15.0,29.88,WNW,296,0.0,3.0,57,0.00,,,0.00,0,weatherlink.com 1.10,2013-03-15 02:14:00,
2013-03-14 22:29:00,28.8,13.0,29.88,NNW,338,0.0,5.0,53,0.00,,,0.00,0,weatherlink.com 1.10,2013-03-15 02:29:00,
2013-03-14 22:44:00,28.9,13.0,29.88,SSE,167,1.0,4.0,51,0.00,,,0.00,0,weatherlink.com 1.10,2013-03-15 02:44:00,
2013-03-14 22:59:00,29.2,12.0,29.88,SSE,163,0.0,4.0,49,0.00,,,0.00,0,weatherlink.com 1.10,2013-03-15 02:59:00,
2013-03-14 23:14:00,29.2,12.0,29.88,NW,315,2.0,5.0,48,0.00,,,0.00,0,weatherlink.com 1.10,2013-03-15 03:14:00,
2013-03-14 23:29:00,29.3,11.0,29.89,NW,306,4.0,6.0,47,0.00,,,0.00,0,weatherlink.com 1.10,2013-03-15 03:29:00,
2013-03-14 23:44:00,29.2,11.0,29.89,SW,221,1.0,8.0,46,0.00,,,0.00,0,weatherlink.com 1.10,2013-03-15 03:44:00,
2013-03-14 23:59:00,29.3,11.0,29.89,SSW,196,1.0,10.0,46,0.00,,,0.00,0,weatherlink.com 1.10,2013-03-15 03:59:00,